Regional Weather Roundup
Issued by NWS

Home | Current Version | Previous Version | Graphics & Text | Print | Product List | Glossary On
Versions: 1 2 3 4 5 6 7 8 9 10 11 12 13 14 15 16 17 18 19 20 21 22 23 24 25 26 27 28 29 30 31 32 33 34 35 36 37 38 39 40 41 42 43 44 45 46 47 48 49 50
000
ASUS45 KSLC 301510
RWRUT

UTAH REGIONAL WEATHER ROUNDUP
NATIONAL WEATHER SERVICE SALT LAKE CITY UT
900 AM MDT SUN AUG 30 2015

UTZ001>011-023>025-301600-

NORTHERN UTAH

CITY           SKY/WX    TMP DP  RH WIND       PRES   REMARKS
BRIGHAM CITY   PTSUNNY   72  48  43 SW7       29.99R
HILL AFB       MOSUNNY   70  49  46 N6        30.02R
LOGAN          SUNNY     70  48  45 VRB3      30.02R
OGDEN          MOSUNNY   71  49  45 W3        29.99R
PROVO AIRPORT  PTSUNNY   73  52  46 E3        30.02R
SALT LAKE CITY PTSUNNY   77  48  35 NW8       29.98R
VERNAL         PTSUNNY   71  41  33 CALM      30.11R
WENDOVER       PTSUNNY   75  41  29 CALM      30.01S
HEBER CITY     PTSUNNY   73  52  46 CALM      30.07S
WEST JORDAN    MOSUNNY   75  52  43 NW9       30.02R

$$

UTZ012>022-026-027-301600-

SOUTHERN/CENTRAL UTAH

CITY           SKY/WX    TMP DP  RH WIND       PRES   REMARKS
BLANDING       MOSUNNY   73  43  34 S10       30.32R
BRYCE CANYON   SUNNY     64  50  60 CALM      30.33R
CEDAR CITY     MOSUNNY   75  48  38 SW10      30.14R
DELTA          CLOUDY    76  45  33 S14G20    30.05R
HANKSVILLE     MOSUNNY   77  43  29 CALM      30.09R
MILFORD        CLOUDY    78  48  34 SW15      30.09R
MOAB/CYNLANDS  SUNNY     77  40  26 SE6       30.07R
PRICE          CLOUDY    73  36  25 E7        30.16R
ST GEORGE      PTSUNNY   84  54  34 SE7       29.98S
KANAB          SUNNY     72  55  56 CALM      30.20R

$$

REGIONAL REPORTS     COLORADO/ARIZONA

CITY           SKY/WX    TMP DP  RH WIND       PRES   REMARKS
CRAIG, CO      MOSUNNY   60  45  57 W5        30.20F
GRAND JUNCTION SUNNY     70  42  36 SE13      30.12S
RIFLE          SUNNY     63  45  51 CALM      30.20S
MONTROSE       MOSUNNY   73  43  33 E3        30.22S
CORTEZ         MOSUNNY   69  49  48 CALM      30.24F
PAGE, AZ       SUNNY     79  51  37 SW3       30.09R
GRAND CANYON   SUNNY     70  52  52 SW9       30.29S
KINGMAN        MOSUNNY   85  55  35 CALM      30.03R
FLAGSTAFF      MOSUNNY   66  53  63 SW7       30.33S

$$

REGIONAL REPORTS    NEVADA/IDAHO/WYOMING

CITY           SKY/WX    TMP DP  RH WIND       PRES   REMARKS
LAS VEGAS, NV  PTSUNNY   89  44  20 S9        29.85S
ELY            SUNNY     70  37  29 S12       30.13R
ELKO           SUNNY     65  42  43 SW8       30.09R
POCATELLO, ID  SUNNY     69  48  47 SW10      30.04R
BURLEY         MOSUNNY   64  51  62 W6        30.02R
EVANSTON, WY   MOSUNNY   70  44  39 SW13      30.17S
ROCK SPRINGS   MOSUNNY   76  38  25 SW14      30.15R
KEMMERER       PTSUNNY   70  37  30 W12       30.18S

$$



USA.gov is the U.S. government's official web portal to all federal, state and local government web resources and services.